星链-5556 (STARLINK-5556 )

导读

STARLINK-5556是美国太空探索技术公司(SpaceX)于2023年1月26日发射的星链(Starlink)卫星,隶属于SpaceX打造的低轨巨型卫星星座。星链星座旨在为全球提供高速宽带互联网接入服务,尤其能为网络基础设施匮乏的区域实现网络覆盖,该卫星运行在近地轨道,是SpaceX全球卫星互联网组网的组成单元。

基本信息
目录编号:
55385
目录名称:
STARLINK-5556
国际标识:
2023-013BG
轨道中心:
EARTH
卫星名称:
星链-5556
卫星全名:
星链-5556 (STARLINK-5556 )
卫星状态:
在轨 (已飞行1317 天)
发射日期:
2023-01-26 UTC
国别 :
美国 (US)
星等 :
--
轨道信息
数据来源 国际轨道数据
星历时间: 2026-09-04T02:06:26+0800
13小时前
查看轨道信息
半长轴: 6861.198km
偏心率: 0.000173
轨道倾角: 43.003°
近地点辐角 265.007°
升交点赤经 32.680°
平近点角 95.058°
近地点: 481.874km
远地点: 484.248km
周期: 94.267分钟
每日圈数: 15.275762
详细信息
固有亮度:
5
最大亮度:
2.5
卫星平台:
Starlink v1.5
覆盖范围:
全球
运营商:
太空探索技术公司
运营商所在国:
美国
制造商(研发单位):
太空探索技术公司
制造商所在国:
美国
使用方式:
暂无
卫星简介
星链(Starlink)计划是由太空探索技术公司(SpaceX)提出的一个巨型低轨卫星互联网星座项目,计划在2019年至2024年间在太空搭建由约1.2万颗卫星组成的“星链”网络,其中1584颗将部署在地球上空550千米处的近地轨道,并从2020年开始工作。该卫星仍在工作。
2D轨道图
3D轨道图
轨道高度分析图
轨道倾角分析图
轨道综合分析图
查看轨道综合分析图
交会数据列表
事件ID 空间交会对象 最接近时刻(TCA) 交会距离 交会风险概率(CRP) 交会风险指数(CRI) 操作
CDM_260829-113305-538506-660321
2026-08-29T
11:33:42+0000
0.633 km
远距离
7.525027E-5 中风险 0.73
CDM_260829-095905-538506-660321
2026-08-29T
09:59:33+0000
2.935 km
极远距离
9.594024E-7 极低风险 0.35